Overview Statistics Trail Chart Weather Telemetry Raw packets
 

This is the latest recevied weather packets stored in our database for station/object KB1WCR. If no packets are shown the sender has not sent any weather packets the latest 10 day(s).

<< 52 53 54 55 56 57 58 >>
Time Temp. Humidity Pressure Rain* Wind** Luminosity Snow
1788045304 17.78° C 86% 1019.6 hPa 0 mm - 7 W/m² -
1788044999 18.33° C 83% 1019.8 hPa 0 mm - 10 W/m² -
1788044698 18.33° C 81% 1019.7 hPa 0 mm - 13 W/m² -
1788044393 18.89° C 79% 1019.7 hPa 0 mm - 16 W/m² -
1788044088 19.44° C 79% 1019.7 hPa 0 mm - 18 W/m² -
1788043784 19.44° C 77% 1019.8 hPa 0 mm - 21 W/m² -
1788043483 20° C 75% 1019.9 hPa 0 mm - 24 W/m² -
1788043178 20° C 74% 1019.8 hPa 0 mm - 26 W/m² -
1788042873 20° C 75% 1019.9 hPa 0 mm - 28 W/m² -
1788042573 20° C 73% 1020 hPa 0 mm - 30 W/m² -
1788042272 20.56° C 72% 1020.1 hPa 0 mm - 31 W/m² -
1788041969 20.56° C 70% 1020 hPa 0 mm - 33 W/m² -
1788041664 21.11° C 70% 1020.1 hPa 0 mm - 36 W/m² -
1788041358 21.67° C 67% 1020.1 hPa 0 mm - 40 W/m² -
1788041052 21.67° C 66% 1020.1 hPa 0 mm - 37 W/m² -
1788040751 21.67° C 67% 1020.1 hPa 0 mm - 47 W/m² -
1788040444 22.22° C 64% 1020.1 hPa 0 mm - 54 W/m² -
1788040141 22.22° C 64% 1020.1 hPa 0 mm - 79 W/m² -
1788039835 22.78° C 63% 1020.1 hPa 0 mm - 44 W/m² -
1788039530 22.78° C 62% 1019.9 hPa 0 mm - 115 W/m² -
1788039225 22.78° C 61% 1020 hPa 0 mm - 145 W/m² -
1788038920 22.78° C 62% 1020.1 hPa 0 mm - 135 W/m² -
1788038615 22.78° C 60% 1020.2 hPa 0 mm - 160 W/m² -
1788038314 23.33° C 60% 1019.9 hPa 0 mm - 176 W/m² -
1788038010 23.33° C 60% 1020.3 hPa 0 mm - 210 W/m² -

* Rain latest hour (hover to see other rain measurements)
** Current wind speed in m/s (hover to see current wind gust speed)